Regional Weather Roundup
Issued by NWS

Home | Current Version | Previous Version | Graphics & Text | Print | Product List | Glossary On
Versions: 1 2 3 4 5 6 7 8 9 10 11 12 13 14 15 16 17 18 19 20 21 22 23 24 25 26 27 28 29 30 31 32 33 34 35 36 37 38 39 40 41 42 43 44 45 46 47 48 49 50
000
ASUS45 KCYS 010510
RWRWY

WYOMING REGIONAL WEATHER ROUNDUP
NATIONAL WEATHER SERVICE CHEYENNE WY
1100 PM MDT THU JUL 31 2014

NOTE:  "FAIR" INDICATES FEW OR NO CLOUDS BELOW 12,000 FEET
WITH NO SIGNIFICANT WEATHER AND/OR OBSTRUCTIONS TO VISIBILITY.

WYZ001-010600-
YELLOWSTONE NATIONAL PARK

CITY           SKY/WX    TMP DP  RH WIND       PRES   REMARKS
LK YELLOWSTONE   N/A     56  43  61 VRB5      30.45F
W YELLOWSTONE  NOT AVBL

$$
WYZ002>013-054>058-071-098>099-010600-
NORTHERN WYOMING

CITY           SKY/WX    TMP DP  RH WIND       PRES   REMARKS
JACKSON        MOCLDY    61  45  55 N8        30.31S
CODY           PTCLDY    70  39  32 W3        30.22R
GREYBULL       CLEAR     74  40  29 NE5       30.11R
WORLAND        CLEAR     74  41  30 W3        30.12R
SHERIDAN       CLEAR     62  44  51 VRB3      30.11S
BUFFALO        CLEAR     68  37  32 W10       30.20R
GILLETTE       PTCLDY    68  45  43 S10       30.16R
HULETT         FAIR      64  46  52 MISG      30.16S
NEWCASTLE      FAIR      70  37  30 MISG      30.18S

$$
WYZ014>020-022>026-101>103-010600-
CENTRAL WYOMING

CITY           SKY/WX    TMP DP  RH WIND       PRES   REMARKS
BIG PINEY      PTCLDY    55  47  74 NW5       30.34S
PINEDALE       MOCLDY    55  45  67 W3        30.35S
DUBOIS         FAIR      55  39  54 NW8       30.37R
LANDER         CLEAR     68  29  23 SW15      30.22S
RIVERTON       PTCLDY    64  29  26 NW7       30.23R
CASPER         CLEAR     55  34  45 W5        30.21S
DOUGLAS        CLEAR     63  44  50 E6        30.23R

$$
WYZ021-027>030-104>119-010600-
SOUTHERN WYOMING

CITY           SKY/WX    TMP DP  RH WIND       PRES   REMARKS
EVANSTON       PTCLDY    62  43  49 E5        30.33R
KEMMERER       PTCLDY    55  39  54 N12       30.35S
FORT BRIDGER   FAIR      66  43  43 NW3       30.35R
ROCK SPRINGS   CLEAR     68  32  26 E9        30.30S
DIXON          FAIR      62  44  51 NE8       30.30R
RAWLINS        CLEAR     60  41  49 NE8       30.31S
SARATOGA       FAIR      59  43  55 S9        30.34R
LARAMIE        CLEAR     53  46  77 S6        30.37S
CHEYENNE       CLEAR     61  49  64 W5        30.31S
TORRINGTON     CLEAR     63  48  58 E10       30.19R
PINE BLUFFS    FAIR      66  50  55 S3        30.28R

$$


USA.gov is the U.S. government's official web portal to all federal, state and local government web resources and services.